軌道要素
Epoch 2024 Oct. 17.0 TT = JDT 2460600.5
T 2023 Sept. 28.89054 TT Rudenko
q 3.7038506 (2000.0) P Q
z +0.0011689 Peri. 234.85763 -0.48759782 +0.66420842
+/-0.0000003 Node 325.46758 +0.60663210 -0.20900901
e 0.9956705 Incl. 88.34261 -0.62789001 -0.71773422
>From 1014 observations 2021 Apr. 30-2024 Aug. 31, mean residual 0".6.
|